Forside
METAR-TAF:

METAR-TAF

Lufthavne :

Monticello, Kentucky, USA

Breddekreds: 36-51-19N, længdekreds: 084-51-22W, højde: 294 m

Aktuelle vejr

Denne rapport blev lavet for 12 minutter siden, kl. 15:16 UTC
Vind 13 kt fra vestsydvest
Temperatur 21°C
Fugtighed 83%
Tryk 1012 hPa
Sigt: 16.1 km
Overskyet i en højde af 1500 ft

METAR: KEKQ 081516Z AUTO 25013KT 10SM OVC015 21/18 A2987 RMK AO2 PNO $

Tid: 11:28 (15:28 UTC)


TAF: fraværende

Vejrobservationer og prognoser fra mere end 4000 lufthavne (METAR og TAF).

De gule og røde prikker repræsenterer de meteorologiske stationer.

Flyt musen over at se navnet på stationen.

Så klik over at se vejr observationer og prognoser.

At skifte det kort: Klik på de grønne knapper med et sort kors for at zoome ind; på den grønne knap med en bindestreg for at zoome ud; eller på de grønne pile for tilstødende kort.


METAR-TAF: